London, United Kingdom

1:13 AM BST on June 24, 2017 (GMT +0100)
Heathrow

Weather History for EGLL - October, 2013

Change the Weather History Date:

Wednesday, October 30, 2013

  Actual Average Record
Temperature  
Mean Temperature 48 °F -  
Max Temperature 58 °F 50 °F 66 °F (2001)
Min Temperature 38 °F 39 °F 28 °F (1997)
Degree Days  
Heating Degree Days 17    
Moisture  
Dew Point 44 °F    
Average Humidity 80    
Maximum Humidity 93    
Minimum Humidity 54    
Precipitation  
Precipitation 0.00 in - - ()
Sea Level Pressure  
Sea Level Pressure 30.12 in    
Wind  
Wind Speed 7 mph ()    
Max Wind Speed 15 mph    
Max Gust Speed 24 mph    
Visibility 7.6 miles    
Events      
Averages and records for this station are not official NWS values.
T = Trace of Precipitation, MM = Missing Value Source: Averaged Metar Reports

Daily Weather History Graph

Daily Weather History Graph

Search for Another Location

Airport or City:

Trip Planner

Search our weather history database for the weather conditions in past years. The results will help you decide how hot, cold, wet, or windy it might be!

Date:

Astronomy

Oct. 30, 2013 Rise Set
Actual Time 6:51 AM GMT 4:38 PM GMT
Civil Twilight 6:16 AM GMT 5:13 PM GMT
Nautical Twilight 5:37 AM GMT 5:52 PM GMT
Astronomical Twilight 4:58 AM GMT 6:31 PM GMT
Moon 1:57 AM GMT (10/30) 2:40 PM GMT (10/30)
Length of Visible Light 10h 56m
Length of Day
9h 46m
Waning Crescent, 18% of the Moon is Illuminated
Oct 30
Waning Crescent
Nov 3
New
Nov 10
First Quarter
Nov 17
Full
Nov 25
Last Quarter

Hourly Weather History & Observations

Time (GMT) Temp. Windchill Dew Point Humidity Pressure Visibility Wind Dir Wind Speed Gust Speed Precip Events Conditions
12:00 AM 42 °F - 38 °F 82% 30.08 in 15 mi West 5.8 mph - -  
12:20 AM 41.0 °F 37.1 °F 39.2 °F 93% 30.06 in - South 5.8 mph - N/A   Clear
12:50 AM 42.8 °F 40.1 °F 39.2 °F 87% 30.09 in - West 4.6 mph - N/A   Clear
1:20 AM 42.8 °F 38.6 °F 39.2 °F 87% 30.09 in 6.2 mi West 6.9 mph - N/A   Unknown
1:50 AM 42.8 °F 38.0 °F 39.2 °F 87% 30.09 in 6.2 mi West 8.1 mph - N/A   Unknown
2:20 AM 41.0 °F 35.8 °F 39.2 °F 93% 30.09 in 6.2 mi West 8.1 mph - N/A   Unknown
2:50 AM 41.0 °F 36.4 °F 39.2 °F 93% 30.09 in - West 6.9 mph - N/A   Clear
3:00 AM 42 °F - 39 °F 85% 30.12 in 18 mi West 4.6 mph - -  
3:20 AM 41.0 °F 37.1 °F 39.2 °F 93% 30.09 in - West 5.8 mph - N/A   Clear
3:50 AM 41.0 °F 37.1 °F 39.2 °F 93% 30.12 in - West 5.8 mph - N/A   Clear
4:20 AM 41.0 °F 38.0 °F 39.2 °F 93% 30.12 in - West 4.6 mph - N/A   Clear
4:50 AM 41.0 °F 36.4 °F 39.2 °F 93% 30.12 in - WSW 6.9 mph - N/A   Clear
5:20 AM 39.2 °F - 37.4 °F 93% 30.12 in - WNW 2.3 mph - N/A   Clear
5:50 AM 39.2 °F - 37.4 °F 93% 30.12 in - Calm Calm - N/A   Clear
6:00 AM 40 °F - 38 °F 89% 30.14 in 14 mi WNW 1.2 mph - -  
6:20 AM 39.2 °F - 37.4 °F 93% 30.15 in - Calm Calm - N/A   Clear
6:50 AM 39.2 °F - 37.4 °F 93% 30.15 in - Calm Calm - N/A   Clear
7:20 AM 39.2 °F 37.0 °F 37.4 °F 93% 30.15 in - NW 3.5 mph - N/A   Clear
7:50 AM 41.0 °F 38.0 °F 39.2 °F 93% 30.18 in - West 4.6 mph - N/A   Clear
8:20 AM 42.8 °F 40.1 °F 41.0 °F 93% 30.18 in - SW 4.6 mph - N/A   Clear
8:50 AM 44.6 °F 42.2 °F 41.0 °F 87% 30.18 in - SW 4.6 mph - N/A   Clear
9:00 AM 47 °F - 42 °F 76% 30.19 in 16 mi SW 3.5 mph - -  
9:20 AM 48.2 °F - 42.8 °F 82% 30.18 in - South 5.8 mph - N/A   Clear
9:50 AM 50.0 °F - 44.6 °F 82% 30.18 in - SSW 6.9 mph - N/A   Clear
10:20 AM 51.8 °F - 42.8 °F 71% 30.18 in - SSW 6.9 mph - N/A   Clear
10:50 AM 53.6 °F - 44.6 °F 72% 30.18 in - WSW 10.4 mph - N/A   Clear
11:20 AM 55.4 °F - 44.6 °F 67% 30.15 in 6.2 mi WSW 11.5 mph - N/A   Partly Cloudy
11:50 AM 55.4 °F - 42.8 °F 63% 30.15 in 6.2 mi SW 13.8 mph - N/A   Partly Cloudy
12:00 PM 56 °F - 44 °F 54% 30.17 in 25 mi SW 15.0 mph - -   Partly Cloudy
12:20 PM 57.2 °F - 44.6 °F 63% 30.15 in 6.2 mi SW 11.5 mph - N/A   Partly Cloudy
12:50 PM 55.4 °F - 44.6 °F 67% 30.15 in 6.2 mi SSW 12.7 mph - N/A   Scattered Clouds
1:20 PM 57.2 °F - 46.4 °F 67% 30.12 in 6.2 mi SSW 11.5 mph - N/A   Partly Cloudy
1:50 PM 57.2 °F - 46.4 °F 67% 30.12 in 6.2 mi SSW 12.7 mph - N/A   Partly Cloudy
2:20 PM 57.2 °F - 46.4 °F 67% 30.12 in 6.2 mi SSW 11.5 mph - N/A   Partly Cloudy
2:50 PM 57.2 °F - 46.4 °F 67% 30.12 in 6.2 mi SSW 11.5 mph 24.2 mph N/A   Partly Cloudy
3:00 PM 57 °F - 47 °F 61% 30.12 in 22 mi South 10.4 mph - -   Mostly Cloudy
3:20 PM 57.2 °F - 48.2 °F 72% 30.09 in 6.2 mi SSW 9.2 mph - N/A   Partly Cloudy
3:50 PM 57.2 °F - 46.4 °F 67% 30.09 in 6.2 mi SSW 11.5 mph - N/A   Partly Cloudy
4:20 PM 55.4 °F - 46.4 °F 72% 30.09 in 6.2 mi SSW 10.4 mph - N/A   Partly Cloudy
4:50 PM 53.6 °F - 46.4 °F 77% 30.09 in 6.2 mi SSW 11.5 mph - N/A   Partly Cloudy
5:20 PM 53.6 °F - 48.2 °F 82% 30.09 in 6.2 mi SSW 10.4 mph 21.9 mph N/A   Partly Cloudy
5:50 PM 53.6 °F - 48.2 °F 82% 30.09 in 6.2 mi SSW 9.2 mph - N/A   Scattered Clouds
6:00 PM 54 °F - 48 °F 72% 30.11 in 17 mi South 9.2 mph - -   Partly Cloudy
6:20 PM 53.6 °F - 48.2 °F 82% 30.09 in 6.2 mi South 10.4 mph - N/A   Partly Cloudy
6:50 PM 53.6 °F - 48.2 °F 82% 30.09 in 6.2 mi SSW 9.2 mph - N/A   Partly Cloudy
7:20 PM 53.6 °F - 48.2 °F 82% 30.09 in 6.2 mi SSW 10.4 mph - N/A   Partly Cloudy
7:50 PM 55.4 °F - 48.2 °F 77% 30.09 in 6.2 mi SSW 10.4 mph - N/A   Partly Cloudy
8:20 PM 55.4 °F - 48.2 °F 77% 30.09 in 6.2 mi SSW 13.8 mph - N/A   Partly Cloudy
8:50 PM 57.2 °F - 48.2 °F 72% 30.09 in 6.2 mi SSW 11.5 mph - N/A   Scattered Clouds
9:00 PM 56 °F - 49 °F 69% 30.10 in 22 mi SSW 12.7 mph - -   Partly Cloudy
9:20 PM 57.2 °F - 48.2 °F 72% 30.09 in 6.2 mi SSW 10.4 mph - N/A   Mostly Cloudy
9:50 PM 57.2 °F - 50.0 °F 77% 30.09 in 6.2 mi SSW 10.4 mph - N/A   Mostly Cloudy
10:20 PM 55.4 °F - 50.0 °F 82% 30.06 in 6.2 mi South 11.5 mph - N/A   Scattered Clouds
10:50 PM 55.4 °F - 50.0 °F 82% 30.06 in 6.2 mi SSW 11.5 mph - N/A   Partly Cloudy
11:20 PM 57.2 °F - 50.0 °F 77% 30.06 in 6.2 mi SSW 11.5 mph - N/A   Scattered Clouds
11:50 PM 57.2 °F - 50.0 °F 77% 30.06 in 6.2 mi SSW 12.7 mph - N/A   Mostly Cloudy